Terug naar catalogus

FENGYUN 1C DEB

LostPO
NORAD 31204·DEBRIS·🇨🇳 China

Gelanceerd May 10, 1999 vanaf Taiyuan Satellite Launch Center

Loading…

Volgende Passages (komende 24 uur)

TLE

VerouderdSource: Space-Track

Epoch: Mar 28, 2011, 04:33 UTC

1 31204U 99025BKJ 11087.18964326 +.00001383 +00000-0 +10408-2 0  9991
2 31204 098.0611 234.0605 0252294 188.1478 178.5437 13.81694359202152

Volg FENGYUN 1C DEB in realtime met AllMySat

Download on the App Store